This demonstration page uses our WeatherBlox Daily Observations layout. Learn more.

Hourly Observations for January 1, 2020

Temp ( °F °C ) Dew Point ( °F °C ) Humidity (%) Winds ( mph kmh ) Pressure ( in mb ) Visibility ( mi km ) Precip ( " mm )
12:16 am 00:16 Cloudy 32 0 30 -1 93 93 W 18 30 29.93 1013 10 16.0934 N/A
12:36 am 00:36 Cloudy 32 0 30 -1 93 93 W 15 24 29.93 1013 10 16.0934 N/A
12:56 am 00:56 Cloudy 32 0 30 -1 93 93 W 15 24 29.93 1013 10 16.0934 N/A
1:16 am 01:16 Cloudy 32 0 30 -1 93 93 W 13 20 29.93 1013 10 16.0934 N/A
1:35 am 01:35 Cloudy 32 0 30 -1 93 93 W 14 22 29.92 1013 10 16.0934 N/A
1:55 am 01:55 Cloudy 34 1 30 -1 87 87 W 17 28 29.91 1013 10 16.0934 N/A
2:16 am 02:16 Cloudy 34 1 32 0 93 93 W 15 24 29.91 1013 10 16.0934 N/A
2:35 am 02:35 Cloudy 34 1 32 0 93 93 W 10 17 29.92 1013 10 16.0934 N/A
2:55 am 02:55 Cloudy 34 1 32 0 93 93 W 14 22 29.92 1013 10 16.0934 N/A
3:16 am 03:16 Cloudy 34 1 32 0 93 93 W 14 22 29.92 1013 10 16.0934 N/A
3:35 am 03:35 Cloudy 34 1 32 0 93 93 W 15 24 29.93 1014 10 16.0934 N/A
3:56 am 03:56 Cloudy 34 1 32 0 93 93 W 12 19 29.93 1014 10 16.0934 N/A
4:15 am 04:15 Cloudy 34 1 32 0 93 93 W 14 22 29.93 1014 10 16.0934 N/A
4:35 am 04:35 Cloudy 34 1 32 0 93 93 W 12 19 29.93 1014 10 16.0934 N/A
4:55 am 04:55 Cloudy 34 1 32 0 93 93 W 14 22 29.92 1013 10 16.0934 N/A
5:15 am 05:15 Cloudy 34 1 32 0 93 93 W 13 20 29.92 1013 10 16.0934 N/A
5:35 am 05:35 Cloudy 34 1 32 0 93 93 W 14 22 29.92 1013 10 16.0934 N/A
5:55 am 05:55 Cloudy 34 1 32 0 93 93 W 16 26 29.92 1013 10 16.0934 N/A
6:16 am 06:16 Cloudy 34 1 32 0 93 93 WSW 14 22 29.92 1013 10 16.0934 N/A
6:36 am 06:36 Cloudy 34 1 32 0 93 93 WSW 15 24 29.92 1013 10 16.0934 N/A
6:55 am 06:55 Cloudy 32 0 30 -1 93 93 WSW 12 19 29.93 1013 10 16.0934 N/A
7:15 am 07:15 Mostly Cloudy 32 0 30 -1 93 93 WSW 8 13 29.94 1014 10 16.0934 N/A
7:36 am 07:36 Mostly Cloudy 32 0 30 -1 93 93 SW 7 11 29.95 1014 10 16.0934 N/A
7:56 am 07:56 Partly Cloudy 32 0 30 -1 93 93 SW 7 11 29.95 1014 10 16.0934 N/A
8:16 am 08:16 Partly Cloudy 32 0 30 -1 93 93 SW 7 11 29.96 1014 10 16.0934 N/A
8:35 am 08:35 Partly Cloudy 32 0 32 0 100 100 SW 8 13 29.96 1014 10 16.0934 N/A
8:55 am 08:55 Sunny 32 0 32 0 100 100 SW 8 13 29.95 1014 10 16.0934 N/A
9:16 am 09:16 Sunny 32 0 32 0 100 100 SW 10 17 29.95 1014 10 16.0934 N/A
9:35 am 09:35 Sunny 34 1 32 0 93 93 SW 12 19 29.95 1014 10 16.0934 N/A
9:55 am 09:55 Sunny 34 1 32 0 93 93 SW 12 19 29.96 1015 10 16.0934 N/A
10:15 am 10:15 Sunny 34 1 32 0 93 93 SW 13 20 29.96 1015 10 16.0934 N/A
10:36 am 10:36 Sunny 36 2 32 0 87 87 SW 13 20 29.96 1014 10 16.0934 N/A
10:56 am 10:56 Sunny 37 3 32 0 81 81 SW 13 20 29.95 1014 10 16.0934 N/A
11:15 am 11:15 Sunny 37 3 32 0 81 81 SW 13 20 29.95 1014 10 16.0934 N/A
11:35 am 11:35 Sunny 39 4 32 0 75 75 SW 13 20 29.94 1014 10 16.0934 N/A
11:55 am 11:55 Sunny 39 4 30 -1 70 70 SW 12 19 29.93 1014 10 16.0934 N/A
12:16 pm 12:16 Sunny 41 5 32 0 70 70 SW 14 22 29.93 1013 10 16.0934 N/A
12:36 pm 12:36 Sunny 41 5 30 -1 66 66 SW 12 19 29.91 1013 10 16.0934 N/A
12:56 pm 12:56 Sunny 43 6 30 -1 61 61 SW 10 17 29.89 1012 10 16.0934 N/A
1:16 pm 13:16 Sunny 43 6 30 -1 61 61 SSW 14 22 29.89 1012 10 16.0934 N/A
1:36 pm 13:36 Sunny 45 7 28 -2 53 53 SW 13 20 29.88 1012 10 16.0934 N/A
1:55 pm 13:55 Sunny 45 7 28 -2 53 53 SW 15 24 29.87 1012 10 16.0934 N/A
2:16 pm 14:16 Sunny 45 7 28 -2 53 53 SW 12 19 29.87 1012 10 16.0934 N/A
2:36 pm 14:36 Sunny 45 7 28 -2 53 53 SW 12 19 29.86 1011 10 16.0934 N/A
2:55 pm 14:55 Sunny 45 7 28 -2 53 53 SW 13 20 29.86 1011 10 16.0934 N/A
3:16 pm 15:16 Sunny 46 8 28 -2 50 50 SW 14 22 29.85 1011 10 16.0934 N/A
3:35 pm 15:35 Sunny 46 8 28 -2 50 50 SSW 10 17 29.85 1011 10 16.0934 N/A
3:55 pm 15:55 Sunny 46 8 28 -2 50 50 SSW 10 17 29.84 1010 10 16.0934 N/A
4:16 pm 16:16 Sunny 46 8 30 -1 53 53 SSW 12 19 29.84 1010 10 16.0934 N/A
4:35 pm 16:35 Sunny 45 7 30 -1 57 57 S 10 17 29.84 1011 10 16.0934 N/A
4:56 pm 16:56 Sunny 45 7 30 -1 57 57 S 7 11 29.83 1010 10 16.0934 N/A
5:16 pm 17:16 Sunny 43 6 30 -1 61 61 S 8 13 29.83 1010 10 16.0934 N/A
5:35 pm 17:35 Clear 41 5 30 -1 66 66 S 8 13 29.84 1010 10 16.0934 N/A
5:55 pm 17:55 Clear 39 4 30 -1 70 70 S 8 13 29.84 1011 10 16.0934 N/A
6:16 pm 18:16 Clear 39 4 28 -2 65 65 S 7 11 29.83 1010 10 16.0934 N/A
6:36 pm 18:36 Clear 37 3 30 -1 75 75 S 8 13 29.83 1010 10 16.0934 N/A
6:56 pm 18:56 Clear 37 3 30 -1 75 75 S 10 17 29.84 1011 10 16.0934 N/A
7:16 pm 19:16 Clear 39 4 30 -1 70 70 S 13 20 29.83 1010 10 16.0934 N/A
7:35 pm 19:35 Clear 39 4 30 -1 70 70 S 10 17 29.82 1010 10 16.0934 N/A
7:55 pm 19:55 Clear 37 3 30 -1 75 75 S 9 15 29.82 1010 10 16.0934 N/A
8:15 pm 20:15 Clear 37 3 30 -1 75 75 S 9 15 29.82 1010 10 16.0934 N/A
8:36 pm 20:36 Clear 37 3 30 -1 75 75 S 9 15 29.82 1010 10 16.0934 N/A
8:55 pm 20:55 Clear 37 3 30 -1 75 75 S 8 13 29.82 1010 10 16.0934 N/A
9:15 pm 21:15 Clear 36 2 30 -1 81 81 S 8 13 29.83 1010 10 16.0934 N/A
9:35 pm 21:35 Clear 36 2 30 -1 81 81 S 9 15 29.83 1010 10 16.0934 N/A
9:55 pm 21:55 Clear 37 3 30 -1 75 75 S 10 17 29.82 1010 10 16.0934 N/A
10:15 pm 22:15 Clear 37 3 30 -1 75 75 S 10 17 29.81 1010 10 16.0934 N/A
10:35 pm 22:35 Clear 36 2 30 -1 81 81 S 10 17 29.82 1010 10 16.0934 N/A
10:55 pm 22:55 Clear 36 2 30 -1 81 81 S 10 17 29.82 1010 10 16.0934 N/A
11:15 pm 23:15 Clear 36 2 30 -1 81 81 S 10 17 29.81 1009 10 16.0934 N/A
11:35 pm 23:35 Clear 36 2 30 -1 81 81 S 10 17 29.8 1009 10 16.0934 N/A
11:55 pm 23:55 Clear 36 2 30 -1 81 81 S 9 15 29.8 1009 10 16.0934 N/A

Powered by AerisWeather